Location: Cussy
(47.0410°N, 4.6412°E)
Time: 05:57:24
(UTC+00:00)

ADEOS Rocket - Pass Details

Date: 30 November 2020
Orbit: 859 x 1306 km, 98.7° (Epoch: 18 January)

Event Time Altitude Azimuth Distance (km) Brightness Sun altitude
Rises 16:56:14 0° 12° (NNE) 4,252 6.0 -10.2°
Reaches altitude 10° 16:58:55 10° 10° (N) 3,307 5.5 -10.7°
Maximum altitude 17:06:36 68° 290° (WNW) 1,400 4.0 -11.9°
Drops below altitude 10° 17:14:12 10° 210° (SSW) 3,275 6.5 -13.1°
Sets 17:16:51 0° 208° (SSW) 4,208 7.0 -13.6°
